Location: Gajan
(43.0218°N, 1.1244°E)
Time: 16:16:26
(UTC+00:00)

Ariane Rocket - Pass Details

Date: 22 April 2021
Orbit: 760 x 770 km, 98.7° (Epoch: 13 May)

Event Time Altitude Azimuth Distance (km) Brightness Sun altitude
Exits shadow 19:18:22 - 139° (SE) 2,757 5.3 -6.3°
Reaches altitude 10° 19:19:37 10° 134° (SE) 2,289 4.9 -6.5°
Maximum altitude 19:24:12 37° 68° (ENE) 1,173 3.7 -7.3°
Drops below altitude 10° 19:28:50 10° 2° (N) 2,301 5.8 -8.0°
Sets 19:31:16 0° 355° (N) 3,231 6.7 -8.4°
